Date String (YYYY-MM-DD hh:mm:ss) UTC,Instrument flags,absolute air pressure of the measurement (hPa),sample flow rate (lpm),inlet stack bypass flow (lpm),air temperature of the measurement (°C),ambient temperature measured by the external sensor (°C),aerosol sample conditioner tube jacket temperature (°C),OPC LED temperature (°C),internal box temperature (°C),relative humidity of the measurement (%),span deviation,mass concentration of particles derived from Lorenz-Mie calculation of OPC scattering (μg/m³),mass concentration of particles derived from Lorenz-Mie calculation of OPC scattering (μg/m³),mass concentration of particles derived from Lorenz-Mie calculation of OPC scattering (μg/m³)
DateTimeUTC,F1_M11,P_M11,Q1_M11,Q2_M11,T1_M11,T2_M11,T3_M11,T4_M11,T5_M11,U1_M11,ZSPAN_M11,X2_M11,X0_M11,X1_M11
2023-07-06 17:00:00,SystemResetWarning,0832.9,5.01,000.00,030.9,028.7,000.0,038.9,031.7,33.7,-001.6,0008.83,0014.46,0008.33
2023-07-06 17:01:00,SystemResetWarning,0833.4,5.00,000.00,030.9,028.7,000.0,039.0,031.8,34.1,-001.4,0008.79,0014.31,0008.30
2023-07-06 17:02:00,SystemResetWarning,0833.0,4.99,000.00,030.9,028.1,000.0,038.9,031.7,34.0,-001.2,0008.79,0014.33,0008.29
2023-07-06 17:03:00,SystemResetWarning,0833.2,4.99,000.00,030.9,026.6,000.0,038.8,031.6,35.1,-001.1,0008.82,0014.40,0008.30
2023-07-06 17:04:00,SystemResetWarning,0833.0,5.03,000.00,031.0,026.0,000.0,038.8,031.5,34.3,-001.4,0008.82,0014.39,0008.30
2023-07-06 17:05:00,SystemResetWarning,0832.9,4.98,000.00,031.0,026.2,000.0,038.8,031.3,34.2,-001.6,0008.78,0014.15,0008.28
2023-07-06 17:06:00,SystemResetWarning,0832.9,5.02,000.00,030.9,026.5,000.0,038.9,031.3,34.3,-001.8,0008.79,0014.12,0008.27
2023-07-06 17:07:00,SystemResetWarning,0833.2,4.98,000.00,030.9,026.9,000.0,038.9,031.3,33.4,-001.7,0008.79,0014.03,0008.28
2023-07-06 17:08:00,SystemResetWarning,0832.8,5.01,000.00,030.9,027.2,000.0,039.0,031.4,33.1,-001.6,0008.76,0012.46,0008.28
2023-07-06 17:09:00,SystemResetWarning,0832.7,5.01,000.00,030.9,027.5,000.0,039.0,031.4,33.4,-001.6,0008.71,0012.03,0008.25
2023-07-06 17:10:00,SystemResetWarning,0832.7,5.01,000.00,030.9,027.7,000.0,039.0,031.5,33.4,-001.6,0008.67,0011.82,0008.25
2023-07-06 17:11:00,SystemResetWarning,0832.7,4.99,000.00,030.9,027.9,000.0,039.1,031.5,33.2,-001.6,0008.72,0011.89,0008.28
2023-07-06 17:12:00,SystemResetWarning,0832.7,5.00,000.00,030.9,028.1,000.0,039.1,031.5,33.3,-001.7,0008.79,0011.96,0008.34
2023-07-06 17:13:00,SystemResetWarning,0832.7,5.02,000.00,030.9,028.2,000.0,039.1,031.6,33.1,-001.8,0008.84,0012.09,0008.38
2023-07-06 17:14:00,SystemResetWarning,0832.7,4.99,000.00,030.9,028.4,000.0,039.1,031.6,32.7,-001.9,0008.86,0012.28,0008.42
2023-07-06 17:15:00,SystemResetWarning,0832.7,5.00,000.00,030.9,028.5,000.0,039.1,031.7,33.4,-001.9,0008.88,0012.34,0008.43
2023-07-06 17:16:00,SystemResetWarning,0832.7,5.01,000.00,030.9,028.6,000.0,039.1,031.7,33.1,-001.9,0008.91,0012.40,0008.45
2023-07-06 17:17:00,SystemResetWarning,0832.7,4.99,000.00,030.9,028.5,000.0,039.1,031.7,33.5,-001.7,0008.94,0013.36,0008.49
2023-07-06 17:18:00,SystemResetWarning,0832.7,4.98,000.00,030.9,027.2,000.0,039.0,031.6,33.4,-001.9,0008.93,0013.41,0008.50
2023-07-06 17:19:00,SystemResetWarning,0832.6,5.00,000.00,030.8,026.2,000.0,038.9,031.4,34.9,-002.2,0008.97,0013.56,0008.52
2023-07-06 17:20:00,SystemResetWarning,0832.6,5.04,000.00,030.9,026.2,000.0,038.9,031.3,35.1,-002.3,0009.06,0013.71,0008.59
2023-07-06 17:21:00,SystemResetWarning,0832.7,4.96,000.00,031.0,026.4,000.0,038.9,031.3,33.4,-002.4,0009.13,0014.05,0008.63
2023-07-06 17:22:00,SystemResetWarning,0832.6,5.02,000.00,031.0,026.8,000.0,039.0,031.4,32.2,-002.4,0009.17,0014.78,0008.66
2023-07-06 17:23:00,SystemResetWarning,0832.6,4.99,000.00,031.0,027.1,000.0,039.0,031.4,32.4,-002.6,0009.20,0014.85,0008.68
2023-07-06 17:24:00,SystemResetWarning,0832.6,4.99,000.00,031.1,027.4,000.0,039.0,031.4,33.8,-002.5,0009.23,0014.84,0008.70
2023-07-06 17:25:00,SystemResetWarning,0832.6,5.01,000.00,031.1,027.7,000.0,039.1,031.5,33.4,-002.3,0009.29,0014.67,0008.75
2023-07-06 17:26:00,SystemResetWarning,0832.7,5.01,000.00,031.1,027.9,000.0,039.1,031.5,34.0,-002.2,0009.34,0014.84,0008.81
2023-07-06 17:27:00,SystemResetWarning,0832.6,4.99,000.00,031.1,028.1,000.0,039.1,031.6,33.6,-002.1,0009.38,0015.43,0008.86
2023-07-06 17:28:00,SystemResetWarning,0832.6,4.99,000.00,031.1,028.2,000.0,039.2,031.6,33.2,-002.2,0009.39,0014.85,0008.87
2023-07-06 17:29:00,SystemResetWarning,0832.6,4.99,000.00,031.1,028.4,000.0,039.2,031.7,34.6,-002.1,0009.49,0014.94,0008.97
2023-07-06 17:30:00,SystemResetWarning,0832.6,5.02,000.00,031.1,028.5,000.0,039.2,031.7,34.5,-001.8,0009.54,0014.92,0009.06
2023-07-06 17:31:00,SystemResetWarning,0832.6,4.97,000.00,031.1,028.6,000.0,039.2,031.7,34.8,-001.5,0009.59,0015.00,0009.11
2023-07-06 17:32:00,SystemResetWarning,0832.6,5.05,000.00,031.2,027.9,000.0,039.2,031.8,34.1,-001.4,0009.67,0015.01,0009.19
2023-07-06 17:33:00,SystemResetWarning,0832.6,4.97,000.00,031.3,026.5,000.0,039.1,031.7,33.1,-001.4,0009.76,0014.33,0009.28
2023-07-06 17:34:00,SystemResetWarning,0832.6,5.01,000.00,031.3,026.2,000.0,039.0,031.6,34.1,-001.1,0009.90,0015.43,0009.37
2023-07-06 17:35:00,SystemResetWarning,0832.6,5.00,000.00,031.2,026.4,000.0,039.1,031.4,34.8,-001.2,0010.00,0016.50,0009.48
2023-07-06 17:36:00,SystemResetWarning,0832.7,5.00,000.00,031.2,026.7,000.0,039.1,031.4,33.6,-001.2,0010.06,0016.67,0009.54
2023-07-06 17:37:00,SystemResetWarning,0832.7,4.99,000.00,031.2,027.0,000.0,039.2,031.4,34.1,-001.4,0010.11,0016.67,0009.61
2023-07-06 17:38:00,SystemResetWarning,0832.7,5.01,000.00,031.2,027.4,000.0,039.2,031.5,34.2,-001.4,0010.17,0016.35,0009.67
2023-07-06 17:39:00,SystemResetWarning,0832.7,5.01,000.00,031.2,027.6,000.0,039.2,031.5,33.8,-001.4,0010.29,0015.99,0009.77
2023-07-06 17:40:00,SystemResetWarning,0832.7,5.00,000.00,031.2,027.9,000.0,039.3,031.6,33.4,-001.4,0010.37,0016.05,0009.83
2023-07-06 17:41:00,SystemResetWarning,0832.7,4.99,000.00,031.2,028.1,000.0,039.3,031.6,33.2,-001.3,0010.40,0016.17,0009.87
2023-07-06 17:42:00,SystemResetWarning,0832.6,5.00,000.00,031.2,028.2,000.0,039.3,031.7,33.2,-001.4,0010.43,0016.79,0009.90
2023-07-06 17:43:00,SystemResetWarning,0832.7,5.00,000.00,031.2,028.4,000.0,039.3,031.7,34.0,-001.7,0010.45,0016.93,0009.96
2023-07-06 17:44:00,SystemResetWarning,0832.7,5.00,000.00,031.2,028.5,000.0,039.4,031.8,33.4,-001.7,0010.48,0017.00,0010.01
2023-07-06 17:45:00,SystemResetWarning,0832.6,4.99,000.00,031.2,028.6,000.0,039.4,031.8,34.1,-002.0,0010.52,0016.34,0010.07
2023-07-06 17:46:00,SystemResetWarning,0832.6,5.00,000.00,031.2,027.6,000.0,039.3,031.8,33.6,-002.2,0010.56,0015.44,0010.12
2023-07-06 17:47:00,SystemResetWarning,0832.6,5.00,000.00,031.1,026.3,000.0,039.1,031.5,34.2,-002.3,0010.61,0015.38,0010.16
2023-07-06 17:48:00,SystemResetWarning,0832.6,5.01,000.00,031.0,026.1,000.0,039.1,031.3,34.0,-002.3,0010.68,0015.52,0010.21
2023-07-06 17:49:00,SystemResetWarning,0832.7,5.01,000.00,030.9,026.3,000.0,039.1,031.2,34.6,-002.4,0010.71,0015.58,0010.24
2023-07-06 17:50:00,SystemResetWarning,0832.7,4.99,000.00,030.8,026.7,000.0,039.1,031.2,34.3,-002.3,0010.71,0015.59,0010.25
2023-07-06 17:51:00,SystemResetWarning,0832.7,4.97,000.00,030.7,027.0,000.0,039.1,031.3,34.9,-002.3,0010.73,0015.60,0010.28
2023-07-06 17:52:00,SystemResetWarning,0832.6,5.03,000.00,030.8,027.3,000.0,039.1,031.4,35.3,-002.4,0010.76,0015.57,0010.29
2023-07-06 17:53:00,SystemResetWarning,0832.7,4.99,000.00,031.0,027.6,000.0,039.1,031.6,34.5,-002.6,0010.81,0014.99,0010.32
2023-07-06 17:54:00,SystemResetWarning,0832.6,5.00,000.00,031.1,027.9,000.0,039.1,031.7,34.4,-002.5,0010.85,0014.95,0010.32
2023-07-06 17:55:00,SystemResetWarning,0832.6,5.01,000.00,031.2,028.1,000.0,039.1,031.7,33.4,-002.5,0010.85,0014.90,0010.31
2023-07-06 17:56:00,SystemResetWarning,0832.6,5.00,000.00,031.3,028.2,000.0,039.2,031.7,33.8,-002.4,0010.82,0014.91,0010.30
2023-07-06 17:57:00,SystemResetWarning,0832.6,4.98,000.00,031.3,028.4,000.0,039.2,031.7,33.9,-002.4,0010.74,0014.79,0010.24
2023-07-06 17:58:00,SystemResetWarning,0832.6,5.00,000.00,031.3,028.5,000.0,039.3,031.8,34.5,-002.3,0010.69,0014.60,0010.21
2023-07-06 17:59:00,SystemResetWarning,0832.7,5.02,000.00,031.4,028.1,000.0,039.3,031.8,34.1,-002.3,0010.63,0014.38,0010.16
